This demonstration page uses our WeatherBlox Daily Observations layout. Learn more.

Left ArrowRight Arrow

34.74481, -87.66753

Hourly Observations for April 11, 2021

Temp ( °F °C ) Dew Point ( °F °C ) Humidity (%) Winds ( mph kmh ) Pressure ( in mb ) Visibility ( mi km ) Precip ( " mm )
12:53 am 00:53 Partly Cloudy 59 15 43 6.1 56 56 WNW 9 15 29.69 1006 10 16 0.00 0.00
1:53 am 01:53 Clear 55 12.8 42 5.6 62 62 Calm 29.69 1005 10 16 0.00 0.00
2:53 am 02:53 Clear 53 11.7 43 6.1 69 69 SSW 5 7 29.68 1005 10 16 0.00 0.00
3:53 am 03:53 Clear 51 10.6 43 6.1 74 74 SSW 5 7 29.69 1005 10 16 0.00 0.00
4:53 am 04:53 Clear 50 10 42 5.6 74 74 SW 3 6 29.69 1006 10 16 0.00 0.00
5:53 am 05:53 Clear 48 8.9 41 5 77 77 SSW 3 6 29.72 1006 10 16 0.00 0.00
6:53 am 06:53 Sunny 50 10 42 5.6 74 74 S 3 6 29.71 1006 10 16 0.00 0.00
7:53 am 07:53 Sunny 55 12.8 45 7.2 69 69 W 8 13 29.72 1006 10 16 0.00 0.00
8:53 am 08:53 Sunny 59 15 46 7.8 62 62 W 13 20 29.71 1006 10 16 0.00 0.00
9:53 am 09:53 Sunny 64 17.8 46 7.8 52 52 WSW 9 15 29.70 1006 10 16 0.00 0.00
10:53 am 10:53 Sunny 68 20 45 7.2 44 44 W 17 28 29.70 1006 10 16 0.00 0.00
11:53 am 11:53 Sunny 70 21.1 45 7.2 41 41 WNW 15 24 29.68 1005 10 16 0.00 0.00
12:53 pm 12:53 Sunny 72 22.2 43 6.1 35 35 W 15 24 29.67 1005 10 16 0.00 0.00
1:53 pm 13:53 Sunny 73 22.8 43 6.1 34 34 W 20 31 29.67 1005 10 16 0.00 0.00
2:53 pm 14:53 Sunny 74 23.3 42 5.6 32 32 W 16 26 29.65 1004 10 16 0.00 0.00
3:53 pm 15:53 Sunny 75 23.9 42 5.6 31 31 WNW 18 30 29.64 1004 10 16 0.00 0.00
4:53 pm 16:53 Sunny 74 23.3 38 3.3 27 27 W 17 28 29.63 1004 10 16 0.00 0.00
5:53 pm 17:53 Sunny 73 22.8 39 3.9 29 29 W 18 30 29.65 1004 10 16 0.00 0.00
6:53 pm 18:53 Sunny 70 21.1 38 3.3 31 31 W 10 17 29.66 1005 10 16 0.00 0.00
7:53 pm 19:53 Clear 65 18.3 39 3.9 39 39 WNW 6 9 29.68 1005 10 16 0.00 0.00
8:53 pm 20:53 Clear 58 14.4 42 5.6 56 56 SSW 3 6 29.70 1006 10 16 0.00 0.00
9:53 pm 21:53 Clear 60 15.6 42 5.6 52 52 Calm 29.71 1006 10 16 0.00 0.00
10:53 pm 22:53 Clear 56 13.3 46 7.8 70 70 Calm 29.72 1006 10 16 0.00 0.00
11:53 pm 23:53 Clear 55 12.8 45 7.2 69 69 S 3 6 29.72 1006 10 16 0.00 0.00

Powered by AerisWeather